When you browse on this site, cookies collect data to enhance your experience and personalize the content and advertising you see.
Visit our Privacy Policy to learn more. By continuing to use the site, you agree to this use of cookies and data.
  • In Denmark
  • List of Countries
  • For 7 days
  • Water Temperature
  • Satellite Maps
  • Weather Map
  • Weather Widgets
  • user-avatar
    Login

    Hourly Weather Al-Basra

    Today, 16 February, Saturday

    Time Temperature Precipitation Wind Pressure Humidity
    00:00 +18°C° 0 mm 2 mps 759 mmHg 54%
    01:00 +18°C° 0 mm 3 mps 759 mmHg 51%
    02:00 +17°C° 0 mm 4 mps 759 mmHg 48%
    03:00 +15°C° 0 mm 5 mps 759 mmHg 45%
    04:00 +15°C° 0 mm 5 mps 760 mmHg 47%
    05:00 +15°C° 0 mm 6 mps 760 mmHg 48%
    06:00 +15°C° 0 mm 6 mps 760 mmHg 50%
    07:00 +15°C° 0 mm 6 mps 761 mmHg 46%
    08:00 +15°C° 0 mm 6 mps 761 mmHg 43%
    09:00 +16°C° 0 mm 6 mps 761 mmHg 40%
    10:00 +17°C° 0 mm 6 mps 761 mmHg 33%
    11:00 +18°C° 0 mm 7 mps 761 mmHg 26%
    12:00 +21°C° 0 mm 7 mps 761 mmHg 20%
    13:00 +21°C° 0 mm 7 mps 761 mmHg 20%
    14:00 +21°C° 0 mm 7 mps 761 mmHg 20%
    15:00 +21°C° 0 mm 7 mps 761 mmHg 19%
    16:00 +21°C° 0 mm 6 mps 761 mmHg 21%
    17:00 +20°C° 0 mm 5 mps 761 mmHg 23%
    18:00 +19°C° 0 mm 4 mps 761 mmHg 25%
    19:00 +19°C° 0 mm 4 mps 762 mmHg 27%
    20:00 +18°C° 0 mm 4 mps 762 mmHg 29%
    21:00 +17°C° 0 mm 3 mps 763 mmHg 31%
    22:00 +17°C° 0 mm 3 mps 763 mmHg 32%
    23:00 +16°C° 0 mm 3 mps 763 mmHg 33%

    Tomorrow, 17 February, Sunday

    Time Temperature Precipitation Wind Pressure Humidity
    00:00 +16°C° 0 mm 3 mps 763 mmHg 33%
    01:00 +16°C° 0 mm 2 mps 762 mmHg 34%
    02:00 +15°C° 0 mm 2 mps 762 mmHg 34%
    03:00 +15°C° 0 mm 2 mps 762 mmHg 34%
    04:00 +14°C° 0 mm 2 mps 762 mmHg 35%
    05:00 +14°C° 0 mm 2 mps 762 mmHg 35%
    06:00 +14°C° 0 mm 1 mps 762 mmHg 36%
    07:00 +15°C° 0 mm 2 mps 762 mmHg 33%
    08:00 +16°C° 0 mm 2 mps 763 mmHg 30%
    09:00 +18°C° 0 mm 2 mps 763 mmHg 27%
    10:00 +19°C° 0 mm 3 mps 763 mmHg 24%
    11:00 +20°C° 0 mm 4 mps 763 mmHg 22%
    12:00 +21°C° 0 mm 5 mps 763 mmHg 19%
    13:00 +22°C° 0 mm 5 mps 762 mmHg 19%
    14:00 +22°C° 0 mm 5 mps 761 mmHg 19%
    15:00 +23°C° 0 mm 6 mps 761 mmHg 18%
    16:00 +22°C° 0 mm 5 mps 761 mmHg 22%
    17:00 +21°C° 0 mm 4 mps 760 mmHg 25%
    18:00 +21°C° 0 mm 4 mps 760 mmHg 28%
    19:00 +20°C° 0 mm 4 mps 761 mmHg 30%
    20:00 +19°C° 0 mm 3 mps 761 mmHg 32%
    21:00 +19°C° 0 mm 3 mps 761 mmHg 34%
    22:00 +18°C° 0 mm 3 mps 761 mmHg 36%
    23:00 +18°C° 0 mm 3 mps 761 mmHg 37%

    Day after tomorrow, 18 February, Monday

    Time Temperature Precipitation Wind Pressure Humidity
    00:00 +17°C° 0 mm 3 mps 761 mmHg 38%
    01:00 +17°C° 0 mm 3 mps 761 mmHg 39%
    02:00 +16°C° 0 mm 3 mps 760 mmHg 41%
    03:00 +16°C° 0 mm 3 mps 760 mmHg 42%
    04:00 +14°C° 0 mm 3 mps 760 mmHg 44%
    05:00 +14°C° 0 mm 3 mps 760 mmHg 46%
    06:00 +13°C° 0 mm 3 mps 760 mmHg 48%
    07:00 +14°C° 0 mm 3 mps 760 mmHg 47%
    08:00 +16°C° 0 mm 3 mps 761 mmHg 45%
    09:00 +17°C° 0 mm 3 mps 761 mmHg 43%
    10:00 +18°C° 0 mm 3 mps 761 mmHg 39%
    11:00 +19°C° 0 mm 4 mps 760 mmHg 34%
    12:00 +20°C° 0 mm 4 mps 760 mmHg 30%
    13:00 +21°C° 0 mm 4 mps 759 mmHg 27%
    14:00 +21°C° 0 mm 5 mps 758 mmHg 25%
    15:00 +22°C° 0 mm 5 mps 758 mmHg 23%
    16:00 +21°C° 0 mm 4 mps 758 mmHg 23%
    17:00 +20°C° 0 mm 4 mps 757 mmHg 24%
    18:00 +20°C° 0 mm 3 mps 757 mmHg 25%
    19:00 +20°C° 0 mm 3 mps 757 mmHg 25%
    20:00 +19°C° 0 mm 3 mps 758 mmHg 26%
    21:00 +19°C° 0 mm 3 mps 758 mmHg 27%
    22:00 +19°C° 0 mm 3 mps 757 mmHg 28%
    23:00 +18°C° 0 mm 3 mps 757 mmHg 30%

    19 February, Tuesday

    Time Temperature Precipitation Wind Pressure Humidity
    00:00 +18°C° 0 mm 3 mps 757 mmHg 31%
    01:00 +17°C° 0 mm 3 mps 756 mmHg 33%
    02:00 +17°C° 0 mm 3 mps 756 mmHg 36%
    03:00 +17°C° 0 mm 4 mps 756 mmHg 38%
    04:00 +16°C° 0.1 mm 3 mps 756 mmHg 40%
    05:00 +16°C° 0.1 mm 3 mps 756 mmHg 42%
    06:00 +16°C° 0.1 mm 2 mps 756 mmHg 44%
    07:00 +16°C° 0 mm 3 mps 757 mmHg 42%
    08:00 +17°C° 0 mm 4 mps 758 mmHg 39%
    09:00 +16°C° 0 mm 6 mps 758 mmHg 37%
    10:00 +17°C° 0 mm 6 mps 758 mmHg 35%
    11:00 +17°C° 0 mm 7 mps 759 mmHg 33%
    12:00 +18°C° 0 mm 7 mps 759 mmHg 32%
    13:00 +18°C° 0 mm 8 mps 758 mmHg 30%
    14:00 +20°C° 0 mm 8 mps 758 mmHg 28%
    15:00 +20°C° 0 mm 8 mps 758 mmHg 27%
    16:00 +20°C° 0 mm 7 mps 758 mmHg 28%
    17:00 +19°C° 0 mm 6 mps 758 mmHg 29%
    18:00 +19°C° 0 mm 5 mps 758 mmHg 31%
    19:00 +19°C° 0 mm 5 mps 759 mmHg 32%
    20:00 +17°C° 0 mm 5 mps 759 mmHg 34%
    21:00 +17°C° 0 mm 5 mps 760 mmHg 36%
    22:00 +16°C° 0 mm 5 mps 760 mmHg 38%
    23:00 +15°C° 0 mm 4 mps 760 mmHg 39%

    20 February, Wednesday

    Time Temperature Precipitation Wind Pressure Humidity
    00:00 +15°C° 0 mm 4 mps 760 mmHg 41%
    01:00 +14°C° 0 mm 4 mps 760 mmHg 42%
    02:00 +14°C° 0 mm 4 mps 760 mmHg 42%
    03:00 +14°C° 0 mm 5 mps 760 mmHg 43%
    04:00 +13°C° 0 mm 5 mps 760 mmHg 44%
    05:00 +13°C° 0 mm 5 mps 760 mmHg 46%
    06:00 +13°C° 0 mm 5 mps 760 mmHg 48%
    07:00 +14°C° 0 mm 5 mps 761 mmHg 44%
    08:00 +15°C° 0 mm 6 mps 761 mmHg 41%
    09:00 +16°C° 0 mm 7 mps 762 mmHg 37%
    10:00 +17°C° 0 mm 7 mps 762 mmHg 34%
    11:00 +18°C° 0 mm 7 mps 762 mmHg 30%
    12:00 +20°C° 0 mm 7 mps 761 mmHg 27%
    13:00 +20°C° 0 mm 7 mps 761 mmHg 25%
    14:00 +21°C° 0 mm 7 mps 761 mmHg 23%
    15:00 +21°C° 0 mm 7 mps 760 mmHg 22%
    16:00 +21°C° 0 mm 6 mps 760 mmHg 23%
    17:00 +20°C° 0 mm 5 mps 760 mmHg 24%
    18:00 +20°C° 0 mm 4 mps 760 mmHg 25%
    19:00 +19°C° 0 mm 4 mps 761 mmHg 26%
    20:00 +18°C° 0 mm 4 mps 761 mmHg 28%
    21:00 +18°C° 0 mm 4 mps 761 mmHg 29%
    22:00 +17°C° 0 mm 4 mps 761 mmHg 31%
    23:00 +17°C° 0 mm 4 mps 761 mmHg 32%

    21 February, Thursday

    Time Temperature Precipitation Wind Pressure Humidity
    00:00 +15°C° 0 mm 4 mps 761 mmHg 34%
    01:00 +15°C° 0 mm 4 mps 761 mmHg 35%
    02:00 +14°C° 0 mm 4 mps 761 mmHg 37%
    03:00 +14°C° 0 mm 4 mps 761 mmHg 39%
    04:00 +13°C° 0 mm 4 mps 761 mmHg 40%
    05:00 +13°C° 0 mm 4 mps 761 mmHg 41%
    06:00 +13°C° 0 mm 4 mps 761 mmHg 42%
    07:00 +14°C° 0 mm 4 mps 762 mmHg 39%
    08:00 +15°C° 0 mm 4 mps 762 mmHg 35%
    09:00 +15°C° 0 mm 5 mps 763 mmHg 32%
    10:00 +17°C° 0 mm 5 mps 763 mmHg 28%
    11:00 +19°C° 0 mm 5 mps 762 mmHg 25%
    12:00 +21°C° 0 mm 5 mps 762 mmHg 21%
    13:00 +21°C° 0 mm 5 mps 762 mmHg 19%
    14:00 +21°C° 0 mm 5 mps 761 mmHg 18%
    15:00 +22°C° 0 mm 4 mps 761 mmHg 16%
    16:00 +21°C° 0 mm 4 mps 761 mmHg 17%
    17:00 +21°C° 0 mm 3 mps 761 mmHg 18%
    18:00 +20°C° 0 mm 3 mps 761 mmHg 18%
    19:00 +19°C° 0 mm 3 mps 761 mmHg 19%
    20:00 +19°C° 0 mm 3 mps 762 mmHg 21%
    21:00 +18°C° 0 mm 4 mps 762 mmHg 22%
    22:00 +18°C° 0 mm 4 mps 762 mmHg 23%
    23:00 +17°C° 0 mm 4 mps 762 mmHg 25%
    Show more